Regional Weather Roundup
Issued by NWS

Home | Current Version | Previous Version | Text Only | Print | Product List | Glossary On
Versions: 1 2 3 4 5 6 7 8 9 10 11 12 13 14 15 16 17 18 19 20 21 22 23 24 25 26 27 28 29 30 31 32 33 34 35 36 37 38 39 40 41 42 43 44 45 46 47 48 49 50
000
ASUS43 KMKX 282200
RWRWI

WISCONSIN REGIONAL WEATHER ROUNDUP
NATIONAL WEATHER SERVICE MILWAUKEE/SULLIVAN WI
500 PM CDT FRI APR 28 2017

NOTE: "FAIR" INDICATES FEW OR NO CLOUDS BELOW 12,000 FEET WITH NO
SIGNIFICANT WEATHER AND/OR OBSTRUCTIONS TO VISIBILITY.

WIZ001-002-006>008-014>016-023>028-282300-
NORTHWEST WISCONSIN

CITY           SKY/WX    TMP DP  RH WIND       PRES   REMARKS
SUPERIOR ARPT  PTSUNNY   52  27  38 NW12G20   29.93R
ASHLAND        CLOUDY    48  28  46 NW12      29.93F
HAYWARD        CLOUDY    48  25  40 VRB3      29.94R
SIREN          CLOUDY    48  26  41 CALM      29.95R
CUMBERLAND     CLOUDY    45  27  49 NW5       29.94F
RICE LAKE      CLOUDY    46  30  52 W6        29.95S
CHETEK         NOT AVBL
LADYSMITH      CLOUDY    46  28  51 W8        29.96R
EAU CLAIRE     MOSUNNY   49  29  46 VRB5      29.92F
MENOMONIE      PTSUNNY   49  30  46 SW6       29.93F
NEW RICHMOND   CLOUDY    46  28  48 NW5       29.95S
OSCEOLA        MOSUNNY   48  30  49 NW7       29.98F
$$

WIZ003>005-009-010-017-018-282300-
NORTH CENTRAL WISCONSIN

CITY           SKY/WX    TMP DP  RH WIND       PRES   REMARKS
MANITOWISH WTR NOT AVBL
ARBOR VITAE    CLOUDY    39  28  64 NW9       29.92R WCI  33
WOODRUFF       CLOUDY    39  28  64 NW9       29.92R WCI  33
RHINELANDER    CLOUDY    44  29  55 W12       29.92R
EAGLE RIVER    CLOUDY    39  26  57 W10       29.91R WCI  33
LAND O LAKES   CLOUDY    38  27  62 W6        29.93R WCI  34
PHILLIPS       CLOUDY    42  28  57 NW8       29.92S
TOMAHAWK       MOSUNNY   44  29  56 W7        29.92R
MEDFORD        CLOUDY    44  29  55 SW7       29.91S
MERRILL        CLOUDY    46  30  54 W6        29.92R
$$

WIZ029-030-035-036-043>047-282300-
CENTRAL WISCONSIN

CITY           SKY/WX    TMP DP  RH WIND       PRES   REMARKS
WAUSAU         CLOUDY    45  30  55 W6        29.91R
MOSINEE        CLOUDY    45  30  57 NW7       29.93R
MARSHFIELD     CLOUDY    47  30  51 W6        29.90F
STEVENS POINT  CLOUDY    45  30  56 CALM      29.92F
WAUPACA        CLOUDY    52  32  47 W10       29.92R
WAUTOMA        CLOUDY    50  33  52 N7        29.90S
WISC RAPIDS    CLOUDY    49  32  52 N8        29.91F
CAMP DOUGLAS   NOT AVBL
$$

WIZ011>013-019>022-031-037>040-048>050-282300-
NORTHEAST WISCONSIN

CITY           SKY/WX    TMP DP  RH WIND       PRES   REMARKS
ANTIGO         CLOUDY    43  30  60 SW8       29.91S
SHAWANO        CLOUDY    50  31  47 W6        29.92R
OCONTO         PTSUNNY   49  32  51 SW8       29.90F
STURGEON BAY   CLOUDY    48  32  53 SW9       29.92F
GREEN BAY      CLOUDY    52  38  58 W5        29.92R
MANITOWOC      NOT AVBL
APPLETON       PTSUNNY   48  30  49 VRB5      29.89S
CLINTONVILLE   CLOUDY    50  32  50 W6        29.91S
OSHKOSH        CLOUDY    50  34  54 NW6       29.90R
$$

WIZ032>034-041-042-053>061-282300-
SOUTHWEST WISCONSIN

CITY           SKY/WX    TMP DP  RH WIND       PRES   REMARKS
LA CROSSE      CLOUDY    50  33  52 NW7       29.92R
SPARTA         MOSUNNY   48  34  58 NW9       29.91F
VIROQUA        MOSUNNY   47  34  60 N7        29.89F
BOSCOBEL       LGT RAIN  49  39  68 CALM      29.90R
PRAIRIE DU CHI DRIZZLE   47  37  68 N3        29.89S
PLATTEVILLE    CLOUDY    46  44  91 NE6       29.88S
$$

WIZ056-057-062-063-064-067-068-282300-
SOUTH CENTRAL WISCONSIN

CITY           SKY/WX    TMP DP  RH WIND       PRES   REMARKS
REEDSBURG      NOT AVBL
BARABOO/DELLS  CLOUDY    49  31  49 NW3       29.90R
LONE ROCK      NOT AVBL
MINERAL POINT  RAIN      48  43  81 NE5       29.89S
MADISON        CLOUDY    49  36  61 N5        29.89S
MIDDLETON      CLOUDY    48  36  63 CALM      29.90S
WATERTOWN      LGT RAIN  50  40  69 CALM      29.89S
MONROE         LGT RAIN  45  39  81 N10       29.87S
JANESVILLE     CLOUDY    54  43  66 NE6       29.86F
$$

WIZ051-052-058>065-066-070>072-282300-
SOUTHEAST WISCONSIN

CITY           SKY/WX    TMP DP  RH WIND       PRES   REMARKS
MILWAUKEE      CLOUDY    47  40  76 E6        29.89F
WAUKESHA       LGT RAIN  52  39  62 CALM      29.89F
MILWAUKEE/TIMM CLOUDY    46  36  66 E6        29.90S
RACINE         CLOUDY    47  39  74 E3        29.91F
KENOSHA        CLOUDY    47  40  76 E8        29.89S
FOND DU LAC    LGT RAIN  51  35  54 N3        29.90R
SHEBOYGAN      LGT RAIN  46  40  79 E3        29.91S
WEST BEND      CLOUDY    50  37  62 E6        29.89S
JUNEAU         DRIZZLE   48  36  61 CALM      29.91S
$$

LSZ147-162-282300-
LAKE SUPERIOR

STATION/POSITION TIME  TEMP    WIND        PRES    WAVE
                       AIR SEA DIR/SP/G            HT/PER
                 (UTC) (F)     (DEG/KT/KT) (MB)    (FT/S)
DEVILS ISLAND    2100   39     240/ 14/ 17 1013.6R
SAXON HARBOR     2130   43     320/ 10/ 13 1013.2F
$$

LMZ867-665-643>646-282300-
LAKE MICHIGAN

STATION/POSITION TIME  TEMP    WIND        PRES    WAVE
                       AIR SEA DIR/SP/G            HT/PER
                 (UTC) (F)     (DEG/KT/KT) (MB)    (FT/S)
CHAMBERS ISLAND  2140   47     170/  6/ 12 1012.5F
N MID LAKE BUOY  2050   38 37  190/ 10/ 14 1015.2F   3/ 5
NORTHPORT PIER   2140   42     170/  8/ 13 1013.5S
KEWAUNEE LAKESHO 2130   41     160/ 12/ 13 1012.8F
SHEBOYGAN LAKESH 2100   40     150/  7/  8 1013.3F
PORT WASHINGTON  2130   42      80/  2/  4 1013.9S
MILWAUKEE LAKESH 2130   42     120/  4/  4   N/A
S MID LAKE BUOY  2050   42 42   40/  6/  8 1013.8F   0
KENOSHA   LAKESH 2100   44      90/  4/  5 1012.5
$$

TC  - TEMPERATURE IN CELSIUS
VSB - VISIBILITY IN STATUTE MILES
WCI - WIND CHILL INDEX
HX  - HEAT INDEX





USA.gov is the U.S. government's official web portal to all federal, state and local government web resources and services.